Simultaneous Nadir Overpasses (SNOs) Predictions

Prediction of SNOs between NOAA-15 and METOP-C Satellite Orbit:

Table of predicted SNOs for the next 14.0 days since TLE Epoch: 7/27/2024
Index Date (NOAA-15) Time (NOAA-15) Lat,Lon (NOAA-15) SZA (NOAA-15 ) Date (METOP-C) Time (METOP-C) Lat,Lon (METOP-C) SZA (METOP-C ) Distance(km) Time Diff (sec)
1 08/01/2024 14:18:32 -81.04,-176.42 114.93 08/01/2024 14:17:19 -81.03,-176.47 114.97 1.16 73
2 08/01/2024 15:09:06 81.04, -9.15 65.08 08/01/2024 15:07:59 81.03, -9.11 65.05 1.38 67
3 08/01/2024 15:59:31 -81.03, 158.56 114.90 08/01/2024 15:58:40 -81.04, 158.43 114.92 2.72 51
4 08/01/2024 16:50:05 81.03, -34.15 65.11 08/01/2024 16:49:20 81.04, -34.21 65.10 1.51 45
5 08/01/2024 17:40:32 -81.05, 132.83 114.91 08/01/2024 17:40:02 -81.04, 132.96 114.92 2.99 30
6 08/01/2024 18:31:05 81.04, -59.53 65.12 08/01/2024 18:30:42 81.04, -59.68 65.10 2.65 23
7 08/01/2024 19:21:31 -81.04, 107.82 114.87 08/01/2024 19:21:23 -81.05, 107.86 114.87 0.98 8
8 08/01/2024 20:12:05 81.04, -84.90 65.13 08/01/2024 20:12:03 81.05, -84.78 65.15 2.12 2
9 08/01/2024 21:02:31 -81.05, 82.44 114.86 08/01/2024 21:02:45 -81.04, 82.39 114.87 1.11 14
10 08/01/2024 21:53:05 81.05,-110.28 65.15 08/01/2024 21:53:25 81.04,-110.25 65.15 1.13 20
11 08/01/2024 22:43:30 -81.03, 57.43 114.83 08/01/2024 22:44:06 -81.05, 57.29 114.82 2.91 36
12 08/01/2024 23:34:03 81.04,-135.29 65.18 08/01/2024 23:34:45 81.05,-135.35 65.20 1.74 42
13 08/02/2024 00:24:30 -81.06, 31.69 114.84 08/02/2024 00:25:27 -81.04, 31.82 114.82 2.78 57



Historial Predications of SNOs between NOAA-15 and METOP-C
